Date String (YYYY-MM-DD hh:mm:ss) UTC,Instrument flags,Ambient pressure (hPa),Sample flow (lpm),Bypass flow (lpm),Sample temperature (°C),Ambient temperature (°C),ASC tube jacket temperature (°C),LED temperature (°C),Box temperature (°C),Sample RH (%),Span deviation,Mass concentration (μg/m³),Mass concentration (μg/m³),Mass concentration (μg/m³)
DateTimeUTC,F1_M11,P_M11,Q1_M11,Q2_M11,T1_M11,T2_M11,T3_M11,T4_M11,T5_M11,U1_M11,ZSPAN_M11,X0_M11,X2_M11,X1_M11
2023-05-14 13:00:00,,0841.1,5.00,0.00,28.8,27.2,00.0,37.1,30.3,27.3,0000.0,0001.62,0000.49,0000.32
2023-05-14 13:01:00,,0841.1,5.01,0.00,28.8,27.2,00.0,37.1,30.3,27.4,0000.0,0001.66,0000.50,0000.33
2023-05-14 13:02:00,,0841.0,4.99,0.00,28.8,27.2,00.0,37.1,30.4,27.4,0000.0,0001.82,0000.53,0000.32
2023-05-14 13:03:00,,0841.1,4.99,0.00,28.8,27.2,00.0,37.1,30.4,27.3,0000.0,0001.91,0000.55,0000.32
2023-05-14 13:04:00,,0841.1,5.00,0.00,28.8,27.2,00.0,37.1,30.4,27.3,0000.0,0001.91,0000.55,0000.32
2023-05-14 13:05:00,,0841.1,5.00,0.00,28.8,27.2,00.0,37.1,30.4,27.3,0000.0,0002.09,0000.54,0000.32
2023-05-14 13:06:00,,0841.1,5.01,0.00,28.8,27.2,00.0,37.1,30.4,27.3,0000.0,0002.31,0000.52,0000.31
2023-05-14 13:07:00,,0841.1,4.98,0.00,28.8,27.2,00.0,37.1,30.4,27.4,0000.0,0001.75,0000.50,0000.31
2023-05-14 13:08:00,,0841.2,4.99,0.00,28.8,27.2,00.0,37.1,30.4,27.5,0000.0,0001.51,0000.48,0000.30
2023-05-14 13:09:00,,0841.2,5.01,0.00,28.8,27.2,00.0,37.1,30.4,27.5,0000.0,0001.53,0000.48,0000.30
2023-05-14 13:10:00,,0841.3,5.00,0.00,28.8,27.2,00.0,37.1,30.4,27.5,0000.0,0001.63,0000.51,0000.30
2023-05-14 13:11:00,,0841.3,4.98,0.00,28.8,27.2,00.0,37.1,30.4,27.4,0000.0,0001.69,0000.52,0000.30
2023-05-14 13:12:00,,0841.2,5.00,0.00,28.8,27.2,00.0,37.1,30.4,27.3,0000.0,0001.73,0000.53,0000.29
2023-05-14 13:13:00,,0841.2,5.02,0.00,28.8,27.2,00.0,37.1,30.3,27.2,0000.0,0001.59,0000.51,0000.29
2023-05-14 13:14:00,,0841.3,4.98,0.00,28.7,27.1,00.0,37.1,30.3,27.4,0000.0,0001.54,0000.50,0000.29
2023-05-14 13:15:00,,0841.2,5.00,0.00,28.7,27.0,00.0,37.1,30.3,27.4,0000.0,0001.50,0000.49,0000.29
2023-05-14 13:16:00,,0841.2,5.01,0.00,28.7,27.0,00.0,37.1,30.3,27.3,0000.0,0001.26,0000.49,0000.30
2023-05-14 13:17:00,,0841.2,5.00,0.00,28.7,27.0,00.0,37.1,30.3,27.5,0000.0,0000.92,0000.49,0000.30
2023-05-14 13:18:00,,0841.2,5.01,0.00,28.7,26.9,00.0,37.1,30.2,27.5,0000.0,0000.95,0000.50,0000.31
2023-05-14 13:19:00,,0841.2,4.99,0.00,28.7,26.9,00.0,37.1,30.2,27.5,0000.0,0000.97,0000.53,0000.31
2023-05-14 13:20:00,,0841.3,5.00,0.00,28.7,26.9,00.0,37.1,30.2,27.5,0000.0,0000.98,0000.55,0000.32
2023-05-14 13:21:00,,0841.3,4.99,0.00,28.6,26.9,00.0,37.1,30.2,27.6,0000.0,0000.94,0000.55,0000.33
2023-05-14 13:22:00,,0841.3,4.99,0.00,28.6,26.9,00.0,37.0,30.2,27.6,0000.0,0001.01,0000.58,0000.35
2023-05-14 13:23:00,,0841.4,5.00,0.00,28.6,27.0,00.0,37.0,30.2,27.7,0000.0,0001.03,0000.62,0000.36
2023-05-14 13:24:00,,0841.4,5.01,0.00,28.6,27.0,00.0,37.0,30.2,27.7,0000.0,0001.15,0000.66,0000.37
2023-05-14 13:25:00,,0841.4,5.00,0.00,28.7,27.0,00.0,37.0,30.2,27.7,0000.0,0001.12,0000.67,0000.39
2023-05-14 13:26:00,,0841.4,4.99,0.00,28.7,27.1,00.0,37.0,30.3,27.7,0000.0,0001.14,0000.69,0000.42
2023-05-14 13:27:00,,0841.4,4.98,0.00,28.7,27.1,00.0,37.0,30.2,27.8,0000.0,0001.10,0000.69,0000.43
2023-05-14 13:28:00,,0841.4,5.00,0.00,28.7,27.1,00.0,37.0,30.3,27.7,0000.0,0001.13,0000.71,0000.45
2023-05-14 13:29:00,,0841.4,5.00,0.00,28.7,27.1,00.0,37.0,30.3,27.6,0000.0,0001.34,0000.72,0000.46
2023-05-14 13:30:00,,0841.4,5.00,0.00,28.7,27.1,00.0,37.0,30.2,27.6,0000.0,0001.35,0000.72,0000.48
2023-05-14 13:31:00,,0841.4,5.00,0.00,28.7,27.1,00.0,37.0,30.2,27.6,0000.0,0001.40,0000.75,0000.51
2023-05-14 13:32:00,,0841.4,4.98,0.00,28.7,27.1,00.0,37.0,30.3,27.6,0000.0,0001.47,0000.78,0000.52
2023-05-14 13:33:00,,0841.5,5.00,0.00,28.7,27.1,00.0,37.0,30.3,27.6,0000.0,0001.38,0000.75,0000.52
2023-05-14 13:34:00,,0841.4,5.01,0.00,28.7,27.1,00.0,37.0,30.3,27.7,0000.0,0001.29,0000.71,0000.52
2023-05-14 13:35:00,,0841.5,5.01,0.00,28.7,27.1,00.0,37.0,30.3,27.6,0000.0,0001.20,0000.69,0000.53
2023-05-14 13:36:00,,0841.5,4.98,0.00,28.7,27.1,00.0,37.0,30.3,27.6,0000.0,0001.25,0000.71,0000.54
2023-05-14 13:37:00,,0841.5,4.99,0.00,28.7,27.1,00.0,37.0,30.3,27.7,0000.0,0001.27,0000.71,0000.53
2023-05-14 13:38:00,,0841.5,5.00,0.00,28.7,27.1,00.0,37.0,30.3,27.7,0000.0,0001.34,0000.74,0000.54
2023-05-14 13:39:00,,0841.5,5.01,0.00,28.7,27.1,00.0,37.0,30.3,27.7,0000.0,0001.35,0000.74,0000.53
2023-05-14 13:40:00,,0841.4,5.01,0.00,28.7,27.1,00.0,37.0,30.3,27.7,0000.0,0001.25,0000.78,0000.54
2023-05-14 13:41:00,,0841.5,4.99,0.00,28.7,27.1,00.0,37.0,30.2,27.8,0000.0,0001.30,0000.81,0000.53
2023-05-14 13:42:00,,0841.5,5.00,0.00,28.7,27.1,00.0,37.0,30.2,27.8,0000.0,0001.23,0000.79,0000.53
2023-05-14 13:43:00,,0841.4,4.99,0.00,28.7,27.1,00.0,37.0,30.2,28.0,0000.0,0001.15,0000.76,0000.52
2023-05-14 13:44:00,,0841.4,5.00,0.00,28.7,27.0,00.0,37.0,30.2,28.0,0000.0,0001.16,0000.76,0000.52
2023-05-14 13:45:00,,0841.4,5.00,0.00,28.6,27.0,00.0,37.0,30.2,28.0,0000.0,0001.17,0000.76,0000.52
2023-05-14 13:46:00,,0841.5,5.00,0.00,28.6,27.0,00.0,37.0,30.2,28.0,0000.0,0001.15,0000.75,0000.52
2023-05-14 13:47:00,,0841.4,5.00,0.00,28.6,27.0,00.0,37.0,30.2,28.0,0000.0,0001.20,0000.77,0000.53
2023-05-14 13:48:00,,0841.4,5.00,0.00,28.6,27.0,00.0,37.0,30.2,27.9,0000.0,0001.19,0000.77,0000.53
2023-05-14 13:49:00,,0841.5,5.00,0.00,28.6,26.9,00.0,37.0,30.2,27.9,0000.0,0001.18,0000.77,0000.55
2023-05-14 13:50:00,,0841.4,5.00,0.00,28.6,26.9,00.0,37.0,30.2,27.8,0000.0,0001.16,0000.78,0000.56
2023-05-14 13:51:00,,0841.4,5.00,0.00,28.6,26.9,00.0,37.0,30.2,27.8,0000.0,0001.07,0000.75,0000.57
2023-05-14 13:52:00,,0841.5,5.00,0.00,28.6,26.9,00.0,37.0,30.1,27.7,0000.0,0001.16,0000.73,0000.57
2023-05-14 13:53:00,,0841.6,5.00,0.00,28.6,26.9,00.0,37.0,30.1,27.6,0000.0,0001.34,0000.73,0000.59
2023-05-14 13:54:00,,0841.6,4.99,0.00,28.6,26.9,00.0,37.0,30.1,27.6,0000.0,0001.39,0000.76,0000.61
2023-05-14 13:55:00,,0841.6,5.00,0.00,28.6,26.9,00.0,37.0,30.1,27.7,0000.0,0001.45,0000.80,0000.64
2023-05-14 13:56:00,,0841.6,5.00,0.00,28.6,26.9,00.0,37.0,30.1,27.8,0000.0,0001.56,0000.85,0000.66
2023-05-14 13:57:00,,0841.6,5.00,0.00,28.6,26.9,00.0,37.0,30.1,27.8,0000.0,0001.58,0000.86,0000.67
2023-05-14 13:58:00,,0841.6,5.00,0.00,28.5,26.8,00.0,37.0,30.1,27.9,0000.0,0001.54,0000.85,0000.68
2023-05-14 13:59:00,,0841.6,5.00,0.00,28.5,26.8,00.0,36.9,30.1,27.9,0000.0,0001.50,0000.83,0000.67
